Theta_e
337 338 336 333 333 335 336 335 336 337 335 335 331 331 331 329 331 332 329 328 326 323 324 327 329 330 330 330 329 328 326 326 327 329 329 328 329 328 326 327 327 327 326 327 328 330 332 332 330 329 327 322 323 326 323 323 324 324 326 326 328 331 330 328 328 328 329 329 328 327 328 328 328 328 329 329 328 327 326 326 325 326 326 325 325
335 337 337 334 333 333 334 333 336 335 332 330 331 331 329 330 333 334 331 328 326 327 329 331 331 329 329 328 327 325 326 326 326 329 327 325 327 327 326 325 327 328 328 327 328 330 331 331 332 332 330 325 324 326 324 324 324 324 326 326 328 331 331 331 329 329 329 328 328 327 327 327 327 329 329 328 327 326 325 324 322 321 321 320 319
334 337 338 335 332 331 332 330 332 332 328 327 331 333 332 333 334 335 333 330 330 331 330 331 332 330 330 327 326 326 326 326 326 328 327 325 326 327 327 325 326 328 328 327 328 330 330 330 331 332 332 328 324 324 324 324 324 325 327 329 331 331 331 331 330 330 329 328 328 328 327 326 326 327 327 326 326 325 325 324 323 322 321 319 318
333 333 335 334 331 331 332 332 330 329 329 330 331 332 333 334 334 333 329 325 329 329 326 330 331 327 323 320 320 320 319 321 324 327 328 326 325 326 327 326 327 328 328 328 329 329 328 328 329 329 330 328 324 323 323 324 325 325 326 329 331 330 330 331 330 329 329 328 327 327 327 326 327 327 326 325 324 323 324 324 323 323 323 322 322
334 332 333 333 332 332 332 332 329 328 331 332 330 328 329 329 332 332 326 320 326 328 326 327 325 319 314 312 314 317 319 323 326 326 326 326 325 325 326 327 328 330 330 330 330 329 327 327 328 328 329 328 327 325 323 323 323 323 324 326 328 329 330 331 330 328 328 328 326 326 327 327 327 327 326 325 324 323 323 323 323 322 323 322 323
333 332 332 333 334 333 332 331 330 330 332 332 329 327 326 326 331 333 327 321 323 327 327 324 323 321 319 320 323 325 326 327 327 326 325 324 325 326 326 326 327 327 328 328 328 328 328 326 327 328 328 327 329 328 326 324 323 324 324 324 327 329 329 329 330 328 326 328 326 324 324 325 326 325 326 326 324 323 322 322 322 321 322 322 322
332 331 331 334 336 334 334 334 333 332 332 331 329 328 327 329 332 332 326 320 321 326 328 326 325 326 327 327 327 327 327 327 326 326 325 323 324 324 324 323 324 325 324 324 324 323 324 323 323 325 326 326 326 327 327 325 326 327 327 327 328 328 326 328 330 329 327 329 328 325 323 324 326 326 326 325 324 323 321 320 320 320 320 321 321
332 332 332 335 336 336 336 334 333 331 328 328 328 328 327 327 331 333 330 325 323 327 329 324 324 328 329 327 326 326 324 322 323 323 322 321 321 321 321 321 324 325 324 324 324 322 321 321 321 323 324 324 324 325 326 325 325 325 326 328 327 327 326 325 328 330 329 329 328 327 326 324 324 325 325 325 323 322 320 320 318 317 318 320 320
333 335 336 337 336 337 336 334 332 332 328 325 324 325 325 324 326 330 333 331 329 329 326 322 324 327 328 327 325 323 320 319 321 321 320 320 320 322 323 323 324 324 324 324 324 323 322 322 322 323 324 324 324 324 324 324 325 324 324 327 327 327 327 324 325 328 328 329 328 328 328 325 324 323 323 323 323 321 320 319 318 316 317 318 318
334 337 337 337 336 336 335 333 333 333 331 329 326 325 326 326 325 328 332 332 330 328 325 323 324 325 327 326 325 322 320 321 321 319 319 320 321 322 322 322 323 324 324 325 325 324 324 324 324 324 324 323 324 324 323 323 323 322 323 326 326 326 326 323 325 328 327 327 328 327 327 326 325 324 322 322 322 320 319 319 319 318 317 317 317
333 336 337 336 335 335 334 334 333 332 331 329 326 326 328 327 325 326 330 331 330 328 326 323 322 324 327 327 325 322 321 322 321 320 321 321 321 322 322 323 323 324 324 324 324 322 322 323 324 324 322 322 324 324 324 323 321 320 320 322 322 323 324 323 324 326 325 325 326 326 325 325 324 323 322 321 320 319 319 318 318 318 317 316 315
330 333 334 334 334 334 333 333 332 329 326 326 326 326 327 327 324 323 328 331 330 327 325 321 320 324 327 327 326 321 318 321 322 320 322 322 322 322 322 323 323 324 323 323 323 322 322 322 323 323 323 322 324 323 324 324 323 321 319 320 321 321 322 323 323 324 326 325 325 324 323 323 322 320 320 319 318 318 318 318 317 316 316 315 314
331 331 332 333 333 333 333 332 331 328 325 326 327 325 326 326 323 322 325 327 326 325 323 319 318 323 327 328 328 322 318 321 321 320 321 320 321 321 321 322 322 323 323 322 322 322 323 323 322 323 322 321 322 323 323 324 324 323 321 321 322 323 323 325 325 325 325 324 322 320 319 319 318 317 318 317 317 318 318 316 315 315 315 314 313
330 331 331 332 333 332 331 330 330 328 325 326 327 326 326 326 322 321 322 320 320 322 323 320 318 321 325 327 328 324 321 322 321 320 320 319 320 321 321 322 323 322 322 321 322 323 323 322 321 321 321 320 320 320 321 322 323 323 323 322 323 324 324 324 324 323 322 320 318 316 315 314 314 313 315 315 315 317 317 316 315 314 314 314 313
330 331 332 333 333 331 330 329 329 328 325 325 325 326 326 324 319 317 317 316 317 319 320 321 319 319 321 323 326 325 322 322 321 320 320 319 319 321 322 322 322 321 321 321 321 321 318 317 317 318 319 320 320 319 320 321 322 322 322 321 321 320 320 320 320 318 317 315 314 313 313 312 312 311 312 312 314 315 316 316 315 314 314 314 314
329 330 332 334 333 331 329 328 327 326 323 322 323 324 325 322 318 316 316 316 316 316 317 320 319 318 320 321 324 324 320 319 321 320 319 319 320 322 322 322 321 320 319 318 318 316 314 313 314 314 316 318 318 319 319 319 320 320 320 318 316 315 315 315 313 311 309 309 310 312 313 312 312 313 313 313 314 315 315 315 315 314 314 314 313
327 328 332 334 333 331 329 326 323 322 321 321 320 321 321 320 319 318 318 318 317 316 318 319 319 318 320 321 323 324 320 316 315 314 312 315 319 322 322 321 320 317 314 314 316 316 315 314 312 310 311 313 314 316 315 315 316 317 315 314 313 312 311 310 309 307 305 306 309 313 314 313 314 314 314 314 314 315 315 315 316 314 314 314 313
329 330 331 332 332 331 329 327 324 322 320 319 318 319 319 319 319 318 318 318 319 319 320 319 319 319 318 320 322 324 321 315 312 308 306 308 312 316 319 318 315 311 308 309 311 312 311 310 308 307 307 308 310 311 311 312 313 312 311 309 307 307 307 306 306 306 307 310 313 315 316 315 315 314 313 314 314 315 315 316 316 315 315 315 315
331 331 331 331 331 330 328 326 325 323 321 320 319 319 320 319 319 319 318 319 320 321 320 319 320 320 318 319 322 323 322 317 311 306 305 305 306 308 311 310 308 307 305 306 309 310 310 308 307 306 306 305 307 308 309 310 310 307 306 306 305 305 306 307 307 308 310 312 314 316 316 314 313 314 314 315 315 315 315 316 316 316 317 316 316
329 329 329 329 329 329 328 325 324 325 324 322 321 321 321 321 320 321 321 321 321 320 321 320 320 321 320 321 322 322 322 318 310 306 305 305 305 305 306 305 306 306 306 308 311 312 311 310 309 307 306 305 306 306 307 307 306 306 308 306 305 307 308 310 311 312 312 313 314 315 315 314 314 315 316 316 317 316 316 316 316 316 317 317 317
327 327 328 328 327 328 327 326 326 326 324 323 323 324 324 323 323 323 322 322 322 322 323 322 321 322 321 321 322 321 322 318 310 308 309 307 305 305 305 305 305 306 307 311 314 313 312 312 311 309 308 307 306 306 306 308 308 309 310 309 309 311 312 312 312 313 314 314 315 314 313 313 314 316 315 316 316 316 316 316 316 316 316 316 316
326 326 327 327 327 326 327 326 326 326 326 325 326 327 327 326 326 326 325 325 325 326 326 325 324 324 324 324 323 322 321 319 313 312 312 310 308 305 305 305 305 307 310 312 314 314 314 313 313 312 310 309 309 309 310 311 311 309 308 310 313 313 312 312 313 313 314 314 314 314 312 311 313 314 314 314 314 315 315 315 315 316 316 316 316
324 324 325 326 326 326 326 326 326 326 326 327 327 328 327 327 327 328 328 327 327 328 328 328 328 327 327 327 325 323 321 320 318 316 315 313 310 307 306 305 305 310 314 315 314 314 315 315 315 314 313 312 312 312 314 313 310 308 308 311 314 314 313 312 312 312 313 312 313 314 312 310 310 311 313 314 314 314 314 315 315 315 315 315 315
323 323 323 324 325 325 325 326 326 326 326 326 327 327 326 326 326 327 328 328 328 328 328 328 328 328 328 328 326 324 322 321 321 320 319 318 315 312 310 308 307 310 313 315 314 314 315 316 316 316 315 314 314 313 314 316 314 313 313 312 313 314 313 313 313 313 312 312 313 314 313 311 310 311 313 314 313 313 314 314 315 314 314 314 314
321 321 321 322 323 323 325 325 325 326 326 326 327 327 327 326 326 327 327 327 327 327 328 327 327 327 327 327 326 324 324 323 322 322 321 320 319 317 317 314 313 313 312 313 314 314 314 314 313 315 315 314 312 310 312 315 314 315 315 314 314 315 315 316 316 315 315 315 315 316 316 315 314 314 315 315 314 314 314 315 315 314 314 314 315
320 320 319 320 320 320 322 323 324 325 326 326 326 327 327 326 326 326 326 326 325 326 326 326 326 326 327 327 326 325 325 324 323 322 322 321 320 319 319 318 317 317 315 313 314 314 314 312 311 312 312 312 312 310 311 312 311 311 314 315 316 317 317 317 318 318 317 317 317 317 317 317 317 317 317 316 316 315 315 315 315 315 314 313 314
318 318 318 318 318 318 319 319 321 322 322 324 324 325 326 326 326 326 326 326 325 325 325 325 324 324 324 325 326 325 325 324 323 323 323 322 321 319 320 319 318 319 318 317 316 315 315 314 313 313 313 313 314 314 313 314 314 315 317 318 319 319 319 319 319 319 318 318 318 318 318 318 318 318 317 317 317 316 316 316 315 315 314 313 314
317 317 316 316 316 316 317 317 318 319 319 321 321 322 324 324 324 325 326 326 326 325 325 325 324 324 324 325 326 325 324 324 324 324 323 323 321 320 320 319 319 320 320 319 319 317 316 316 315 314 314 314 315 316 316 316 317 319 320 321 320 319 320 320 319 319 319 319 319 318 318 318 318 318 317 317 316 316 316 316 315 315 315 314 314
315 315 314 314 314 314 314 314 315 315 316 317 318 319 321 321 322 324 324 324 324 325 325 325 325 325 325 325 325 325 324 325 324 324 323 323 322 321 321 320 320 321 320 320 320 320 318 317 316 316 316 316 317 318 318 317 319 321 321 322 321 320 321 322 320 320 320 319 318 318 318 318 318 317 316 316 316 316 316 316 315 315 315 315 314
313 313 312 312 312 312 312 312 312 313 313 314 314 315 316 317 319 320 321 322 323 323 324 324 325 325 325 325 325 325 325 325 325 324 324 323 323 322 322 321 321 321 321 320 321 321 320 319 318 318 318 318 319 318 317 316 318 320 320 320 320 320 321 321 320 320 320 318 317 317 317 318 318 318 316 315 315 315 315 316 315 315 315 315 314
311 311 310 310 310 310 309 310 310 310 311 312 312 312 312 313 314 315 317 319 321 322 322 323 324 324 324 324 325 325 325 325 325 324 324 324 323 323 322 321 321 321 321 321 321 321 321 320 319 320 320 320 319 316 314 313 315 317 318 317 318 318 318 318 318 318 318 316 316 316 316 317 317 317 316 315 315 315 315 315 315 315 315 315 314
309 309 309 308 308 308 308 308 307 307 308 309 309 310 311 311 311 312 313 315 316 317 318 319 320 321 322 323 323 323 324 324 324 324 324 324 323 323 323 322 322 320 319 320 321 320 321 320 320 321 321 320 318 316 315 314 313 314 315 316 317 316 316 315 315 316 315 314 314 315 316 316 316 316 315 314 313 314 314 315 316 316 316 316 315
308 308 308 308 307 307 307 306 306 306 306 306 307 308 308 309 310 311 312 312 313 313 314 314 315 316 317 319 320 321 322 322 323 323 323 324 324 324 323 323 323 322 321 321 320 319 319 319 320 321 322 321 320 318 317 316 314 314 314 315 316 316 315 314 314 315 314 312 311 310 312 313 313 311 310 310 310 309 309 310 313 314 316 316 317
307 307 307 307 306 306 306 305 305 305 305 305 306 306 307 307 308 309 310 311 312 312 312 312 312 313 313 315 317 319 320 321 321 322 322 323 323 323 324 323 323 323 323 323 322 321 320 319 320 320 321 322 321 319 318 317 316 315 314 314 315 315 315 314 314 315 313 312 310 306 308 313 312 305 302 305 308 307 303 304 306 308 310 313 315
306 306 305 305 305 304 304 304 304 304 304 304 304 305 306 306 307 307 308 309 310 311 311 311 311 311 312 312 313 315 316 318 319 320 321 321 321 321 321 322 322 323 323 323 323 322 322 320 319 319 319 320 320 319 318 317 316 315 315 315 315 315 315 315 316 315 313 311 307 303 305 310 309 303 300 303 305 305 302 302 304 305 306 308 310
304 303 303 302 302 302 302 303 303 303 303 303 303 304 305 305 306 306 306 307 308 309 309 309 310 310 310 311 311 312 313 315 316 317 318 319 319 319 319 320 321 322 322 322 322 322 321 320 320 319 319 319 319 319 318 317 315 316 316 315 315 315 315 315 316 315 312 309 306 305 308 308 303 302 302 302 302 303 302 302 303 304 305 306 309
302 301 301 300 300 301 301 301 301 301 301 301 302 303 304 304 304 305 305 306 307 308 308 308 308 309 309 309 310 311 311 312 313 314 315 317 318 319 319 320 321 321 322 322 322 321 320 320 320 320 319 319 319 318 318 317 316 315 314 314 314 314 314 315 315 313 311 308 304 306 308 306 302 302 302 302 302 302 304 305 305 306 307 309 311
301 301 300 300 299 299 300 300 300 299 298 299 300 301 302 302 303 303 303 304 306 307 307 306 306 307 307 307 308 309 310 311 311 312 313 315 316 316 318 319 320 321 321 321 321 321 319 319 320 320 319 319 318 317 317 317 317 315 313 313 313 314 314 314 313 312 309 305 302 303 303 302 302 302 302 302 302 302 306 308 307 307 308 309 308
300 299 299 300 300 299 299 300 299 298 297 297 298 298 299 300 302 302 302 303 304 305 304 304 304 305 305 306 306 307 308 309 309 310 311 313 314 315 315 317 319 320 320 320 321 320 319 319 320 320 319 319 318 317 316 316 317 315 312 313 314 314 314 313 312 310 306 302 302 303 302 302 302 302 302 302 301 302 308 311 309 308 309 308 307
299 298 298 299 300 300 300 300 299 298 297 297 297 297 297 299 299 300 301 302 303 302 301 301 301 302 303 304 305 306 307 307 307 308 308 309 311 313 314 315 317 319 319 319 320 320 320 320 320 320 319 318 318 318 316 316 316 314 312 313 314 314 313 312 311 309 305 302 303 303 302 302 302 302 302 302 301 302 307 309 309 309 309 308 308
299 298 297 298 299 300 300 299 299 298 296 297 296 296 297 298 299 299 301 301 300 299 298 298 298 298 299 301 303 304 304 305 305 306 306 307 308 310 312 314 315 317 318 318 319 319 319 320 320 320 319 318 318 318 316 315 315 314 313 313 313 313 313 312 311 308 305 303 303 303 302 302 302 302 301 301 301 301 303 304 305 306 307 307 307
299 299 298 297 298 299 299 298 298 298 296 296 296 296 297 297 297 299 299 298 297 297 296 296 297 297 297 298 298 299 300 301 302 303 304 305 307 308 309 312 313 314 315 317 318 319 319 319 319 319 319 318 318 318 316 314 314 314 313 312 312 312 311 310 309 308 307 305 303 302 302 302 302 302 301 301 301 300 301 301 301 302 303 304 304
299 299 298 296 298 299 299 298 299 298 297 297 296 297 297 297 297 298 298 297 296 297 297 296 297 296 296 296 296 297 297 297 299 300 301 302 305 307 308 310 312 312 313 315 316 318 318 318 318 317 318 318 317 317 316 315 313 312 311 310 310 311 310 308 308 308 308 306 304 302 302 302 302 302 301 301 301 300 300 300 301 301 301 302 302
299 299 298 296 297 299 298 299 299 299 298 298 298 298 298 298 299 299 298 298 298 298 297 297 297 297 297 296 296 297 298 298 299 300 301 301 302 304 306 308 310 311 312 313 315 317 318 316 315 316 316 316 317 316 316 315 314 312 310 308 309 310 309 308 308 308 308 307 304 303 303 303 302 302 301 301 300 300 300 300 300 301 301 301 301
299 299 298 297 298 299 299 299 299 299 299 299 299 299 299 299 299 299 298 299 299 299 298 298 298 298 298 297 297 297 298 299 300 300 301 301 302 303 305 307 308 310 311 312 313 315 316 316 315 314 314 315 315 314 314 314 313 311 308 307 308 309 308 308 308 308 308 305 304 303 303 303 302 301 301 300 300 300 300 300 300 300 300 300 300
299 299 298 297 298 299 299 299 299 299 299 299 299 299 299 299 299 299 299 299 299 299 299 299 299 299 299 299 299 299 299 299 300 300 301 301 302 302 303 305 307 308 310 311 312 313 314 314 314 314 313 313 313 313 312 312 311 309 307 305 306 307 307 307 308 308 306 304 303 303 303 302 301 300 299 300 300 300 300 300 299 299 299 299 299
299 299 298 298 298 299 299 299 299 299 299 299 299 299 299 299 299 299 299 299 299 299 299 298 298 299 298 299 299 299 299 299 299 300 300 301 301 302 302 303 304 306 308 309 310 311 312 313 313 314 313 312 312 312 311 310 308 307 306 305 306 307 306 305 306 307 305 303 303 303 302 301 300 300 300 300 300 300 299 299 299 299 299 299 298
298 298 298 298 298 299 299 299 299 299 299 299 299 299 299 299 299 299 299 299 299 298 298 298 298 298 298 298 298 298 298 298 299 299 300 300 301 301 302 302 303 304 307 308 309 310 310 310 312 312 312 312 311 311 310 308 307 305 305 304 306 307 306 304 304 304 304 303 303 302 301 300 300 300 300 300 300 299 299 299 299 299 298 298 298
298 298 298 298 298 298 298 298 299 299 299 299 299 299 299 299 299 299 298 298 298 298 298 298 298 298 298 298 298 298 298 298 298 299 299 300 300 301 301 302 302 303 304 306 309 310 309 309 310 310 310 311 311 310 308 307 306 306 305 305 305 305 305 303 304 304 304 303 302 301 300 300 300 300 300 300 300 299 298 298 299 298 298 298 297
298 297 297 298 298 298 298 298 298 298 298 298 298 299 299 298 298 298 298 298 298 298 297 297 297 297 297 298 297 298 298 298 298 298 299 299 300 300 300 301 301 302 303 305 308 309 309 309 310 309 309 309 310 309 308 307 307 306 306 305 304 304 305 304 304 304 303 302 301 300 300 300 300 300 300 300 300 299 298 298 298 298 297 297 296
297 297 297 297 297 298 298 298 298 298 298 298 298 298 298 298 298 298 298 298 297 297 297 297 297 297 297 297 297 297 297 297 297 297 297 298 299 300 300 300 300 301 302 304 306 306 307 308 309 309 309 308 309 309 308 307 307 307 306 305 306 306 306 305 304 303 302 301 300 300 300 299 299 299 299 299 299 298 298 297 297 297 297 296 295
Wind_Speed
14 16 16 14 13 13 12 12 12 12 12 15 20 23 20 18 17 14 15 15 13 13 11 10 12 11 10 10 9 9 8 7 6 5 5 4 3 3 4 4 5 6 7 8 8 8 9 9 7 5 6 7 7 9 10 10 9 10 8 7 7 7 6 8 11 9 9 9 8 8 8 8 5 2 1 1 1 1 1 2 4 4 3 3 4
16 17 16 16 16 14 13 13 13 15 17 21 24 22 19 16 12 11 15 16 11 10 11 9 10 9 9 8 8 7 7 7 5 5 4 4 4 2 1 2 3 4 5 5 6 7 7 6 4 4 6 7 7 9 11 12 11 10 9 7 6 7 7 7 9 9 8 9 8 8 8 7 5 4 2 2 2 1 1 0 2 3 3 2 3
18 18 15 16 19 18 18 20 20 20 22 24 21 17 16 12 8 8 10 13 11 10 10 11 10 9 10 9 8 7 7 7 6 5 4 4 5 4 3 2 1 2 3 2 3 5 5 6 5 6 6 6 8 10 11 12 12 10 10 8 6 7 7 7 8 8 7 7 9 7 7 7 6 5 4 3 3 3 3 2 1 1 1 2 2
18 18 13 15 20 22 22 24 25 24 22 19 16 14 13 10 7 5 5 10 12 11 9 9 10 9 10 9 8 7 6 7 7 6 6 4 4 4 4 3 2 3 1 0 3 6 6 6 5 5 5 5 6 7 8 10 10 10 10 9 8 7 7 7 7 8 6 6 8 7 6 7 6 6 5 4 3 3 3 2 3 3 2 2 3
16 17 14 17 22 21 21 22 24 23 19 17 17 17 15 11 7 5 6 10 12 11 8 7 7 7 8 8 8 8 8 8 7 6 6 5 4 4 4 4 4 5 4 3 3 5 4 3 3 2 3 4 5 5 4 6 7 8 9 9 9 8 7 6 6 9 9 7 6 6 6 6 7 8 8 5 4 4 3 2 2 3 3 3 3
14 15 17 22 23 22 21 20 20 18 15 16 18 17 14 12 8 8 11 12 12 10 8 7 6 7 8 8 8 8 8 8 7 6 6 5 5 4 3 3 3 3 5 4 4 3 3 3 3 2 2 4 6 5 4 5 6 6 7 7 9 9 8 7 5 7 10 9 8 8 6 4 8 12 10 7 6 5 3 3 4 4 4 4 4
14 18 22 23 24 24 21 19 19 18 16 16 17 16 14 11 9 12 13 13 12 11 10 9 7 8 7 5 5 6 7 7 7 7 6 5 5 4 3 3 3 1 2 2 2 1 2 2 2 2 2 2 3 5 5 6 5 6 6 6 7 8 9 7 5 5 7 8 7 8 8 5 10 13 9 8 9 6 5 5 5 5 6 6 6
18 25 27 23 22 21 20 20 21 21 21 20 20 18 17 14 11 12 14 14 15 14 12 10 9 8 7 5 5 5 6 7 8 7 7 6 5 5 4 4 4 2 2 3 2 2 2 2 2 2 2 1 2 4 6 6 6 7 7 7 7 6 7 7 6 5 5 6 6 6 7 7 11 12 9 8 9 8 6 5 5 5 6 7 7
20 23 23 19 20 20 19 20 20 19 20 21 22 21 17 15 14 13 14 14 15 14 12 11 10 10 8 6 5 5 7 7 7 6 6 6 6 6 5 4 5 4 3 3 3 2 2 2 3 4 5 3 3 4 5 7 8 7 7 8 8 7 7 8 7 6 5 5 5 6 6 6 10 11 8 7 6 7 7 6 6 6 7 8 7
18 19 19 18 21 21 20 20 18 17 17 16 19 20 17 15 16 16 14 12 11 11 11 11 11 10 8 6 6 6 7 7 6 6 6 6 6 6 6 5 5 5 4 4 4 3 2 3 3 4 6 6 5 5 5 6 7 6 7 8 8 8 8 8 8 7 6 6 6 6 6 5 7 9 7 6 5 5 6 7 7 7 8 8 8
19 18 19 21 22 21 21 21 21 21 18 17 20 23 22 20 20 19 16 12 11 9 10 11 10 10 9 7 7 7 8 7 6 6 5 5 6 6 6 5 5 5 5 4 4 4 4 5 5 5 4 5 6 5 5 5 6 5 6 7 7 8 7 7 9 9 7 6 5 5 4 4 4 4 4 5 5 4 5 7 7 7 8 8 8
22 20 19 23 24 22 23 23 25 25 22 22 26 27 25 24 25 26 21 14 11 9 9 11 11 11 10 8 7 7 8 8 6 6 6 5 5 6 6 6 6 5 5 4 5 5 5 6 7 5 4 6 6 6 6 6 6 5 5 5 5 5 5 6 9 9 7 6 6 5 4 4 3 3 3 3 3 5 6 6 7 7 8 8 7
22 22 21 25 27 25 23 23 25 26 24 24 26 27 26 25 27 29 24 17 13 10 8 10 12 12 11 9 7 8 9 8 6 6 6 5 6 6 6 6 6 5 4 4 5 6 5 6 6 5 5 6 7 7 7 7 7 6 6 5 5 5 6 7 7 9 9 7 6 5 5 4 4 3 3 3 3 6 6 6 7 7 6 7 6
20 21 23 26 26 23 21 21 24 26 26 24 25 27 26 25 27 26 22 19 15 10 8 9 12 13 11 10 9 8 9 8 7 6 6 6 6 7 7 7 7 6 5 5 6 6 6 7 7 8 7 6 7 8 8 9 8 7 7 8 7 7 8 9 8 8 9 8 6 5 5 5 4 4 4 3 4 6 5 5 7 6 4 5 6
17 17 22 26 25 24 23 22 23 25 26 26 26 28 28 28 28 25 22 23 21 16 13 11 12 13 11 10 9 8 9 9 8 7 7 6 7 8 7 8 7 7 6 6 7 7 7 7 8 10 10 8 8 8 8 10 10 8 9 10 10 9 9 9 9 8 8 8 7 6 6 5 5 4 4 4 4 5 4 5 6 5 5 4 5
15 14 20 25 25 24 24 23 24 25 27 27 26 27 28 28 28 27 26 27 27 23 20 17 14 13 12 11 10 9 10 10 9 8 9 9 8 8 8 8 8 7 7 8 8 7 7 7 8 11 11 9 9 9 8 9 10 8 9 10 10 9 9 9 8 8 8 8 9 8 7 6 7 6 5 4 4 4 5 6 5 5 6 5 5
14 15 20 24 23 23 22 23 27 29 28 28 27 26 27 27 28 29 28 27 28 27 25 22 17 14 13 13 12 11 9 9 10 9 10 11 11 10 10 10 9 9 9 9 9 8 8 9 9 11 12 11 10 9 8 9 10 8 9 11 11 10 10 9 9 9 9 9 10 9 8 7 7 6 6 7 6 6 7 6 4 4 4 5 6
16 17 20 21 22 23 20 21 26 28 30 31 30 28 28 29 30 30 29 28 27 27 25 22 17 15 15 14 13 12 10 9 9 9 10 12 13 14 14 13 12 12 13 12 10 9 9 9 10 10 11 12 11 10 9 9 9 9 10 10 11 11 11 11 11 11 11 11 10 9 8 8 8 7 8 8 7 7 6 4 3 3 1 1 5
18 18 18 19 21 20 20 23 25 24 26 28 28 28 28 28 28 28 27 26 26 25 23 20 17 16 16 15 13 13 11 9 9 10 10 11 12 13 14 14 13 13 15 14 11 9 9 9 9 10 10 11 11 11 10 10 9 10 10 10 11 12 12 13 13 12 12 12 12 10 8 9 10 9 9 9 7 7 5 3 3 2 2 4 4
16 16 15 15 16 17 20 24 22 18 20 23 25 27 27 27 28 27 26 24 23 22 20 19 18 17 17 16 15 13 11 10 10 11 11 10 9 10 12 14 13 13 14 13 10 9 9 8 8 9 10 10 11 11 11 11 11 10 9 10 12 12 12 13 12 11 11 11 11 10 9 10 10 8 7 8 6 5 5 4 4 4 3 5 4
14 15 13 11 13 14 16 18 15 14 17 21 22 22 22 23 24 26 27 25 22 19 18 19 18 16 16 17 16 14 12 12 12 11 9 9 10 10 11 13 14 13 13 12 10 9 9 9 8 9 9 10 12 13 12 12 12 12 11 12 12 11 10 11 12 11 10 10 8 7 9 10 8 6 5 5 4 4 5 4 3 3 2 3 2
13 14 14 13 13 13 13 13 14 15 17 17 16 16 17 17 18 21 23 23 19 16 15 15 14 14 15 14 15 15 14 14 14 11 8 9 10 10 11 12 13 12 11 10 10 10 9 9 9 9 9 10 11 13 12 11 12 14 15 14 11 9 10 11 11 10 8 9 8 6 7 8 7 7 6 3 3 4 2 2 2 1 1 2 1
14 14 15 15 14 13 14 14 14 15 15 15 14 14 14 15 15 15 16 16 13 11 11 11 11 12 12 11 12 13 14 15 16 14 12 12 11 10 10 11 11 11 11 10 11 11 11 10 10 10 10 10 11 12 12 11 12 14 15 14 12 9 10 10 9 8 7 8 8 6 6 7 8 8 7 3 4 5 3 2 4 2 1 1 1
16 15 14 14 14 14 15 15 15 15 14 15 14 14 15 15 14 13 14 13 12 11 11 10 9 10 10 10 11 12 13 15 16 16 14 14 13 11 10 11 11 10 11 11 11 11 12 12 12 12 12 12 12 13 13 12 12 12 11 12 12 10 10 9 8 7 6 6 7 6 5 6 7 7 6 3 4 6 3 2 4 3 2 2 1
17 17 16 15 15 15 15 16 16 16 15 14 14 15 15 15 14 13 13 13 12 11 10 10 9 9 9 10 11 12 13 14 14 14 12 14 16 14 11 11 11 11 11 11 11 11 12 13 13 12 13 13 13 15 14 13 14 14 12 12 11 10 10 9 8 8 7 6 6 6 5 5 6 6 5 4 4 6 4 3 4 4 4 4 2
18 18 18 18 17 16 16 15 15 16 16 15 14 13 14 14 13 12 11 11 10 9 9 9 9 9 9 9 10 11 11 12 13 12 12 14 16 15 13 12 12 11 12 12 12 11 11 12 12 12 12 12 13 14 14 13 15 15 14 12 10 9 9 9 8 8 7 7 7 6 6 6 6 6 6 5 5 6 5 4 5 6 5 4 4
18 19 19 20 19 18 17 16 15 15 14 14 13 12 12 13 12 11 11 10 10 9 9 8 8 8 9 9 10 10 11 11 12 12 12 13 14 14 14 13 12 12 12 12 12 12 12 12 12 13 13 13 13 13 13 13 13 13 12 11 10 10 9 8 8 7 7 7 7 8 8 8 9 8 8 7 7 7 7 6 7 7 5 3 4
18 19 20 20 20 19 18 18 17 16 14 13 12 12 12 11 10 10 9 9 10 9 8 8 8 8 8 9 9 10 10 11 12 11 11 11 12 13 13 14 13 13 13 13 13 13 14 13 14 14 14 15 15 15 15 15 14 14 13 11 11 11 9 8 9 8 8 9 9 9 10 9 10 10 10 10 9 10 10 9 8 8 7 6 6
19 19 19 19 19 19 19 19 19 18 17 15 13 12 12 10 9 8 7 6 7 8 7 6 6 5 6 7 8 9 10 10 10 10 10 11 12 13 13 14 14 14 15 14 14 14 14 14 15 15 16 16 17 17 17 17 17 16 14 14 13 12 10 9 8 8 11 12 11 11 11 10 12 15 15 14 13 13 13 11 9 9 9 9 9
19 19 19 19 19 19 19 19 19 18 17 16 15 14 13 12 10 9 7 6 5 6 5 4 3 3 3 4 6 7 8 8 9 10 10 11 12 13 14 15 14 15 16 16 15 15 15 16 16 16 17 18 19 20 19 19 19 19 18 19 19 17 14 13 11 10 12 13 11 12 13 13 14 16 17 17 15 15 16 15 13 13 12 12 11
18 18 18 18 18 18 18 19 18 18 17 16 15 14 14 13 12 10 9 7 6 6 5 5 4 2 1 2 3 4 6 7 8 10 10 11 13 14 15 15 15 15 16 16 16 16 17 18 18 18 19 22 23 23 21 20 22 22 22 21 22 21 18 15 13 11 11 11 11 10 10 11 12 14 15 16 16 15 16 17 17 17 17 17 16
18 18 17 17 17 17 17 17 17 17 16 15 15 14 14 14 12 11 10 8 7 7 7 6 5 3 2 0 1 2 3 5 7 9 11 12 14 15 15 15 16 17 17 18 19 19 19 20 20 20 22 25 27 26 23 22 23 24 23 22 23 23 21 18 18 15 12 12 12 10 8 8 10 13 13 13 14 14 16 17 17 17 18 20 21
16 16 16 16 16 16 16 16 16 15 15 15 14 14 14 13 12 11 10 9 8 8 8 8 6 5 4 2 1 1 2 3 5 7 9 11 13 14 15 16 17 17 18 19 21 22 22 23 23 23 22 24 27 28 25 24 24 24 24 24 24 24 23 23 23 20 18 17 15 14 11 10 13 16 15 12 11 12 13 15 16 17 18 19 20
15 16 15 15 14 14 14 14 14 14 14 13 13 13 13 12 11 11 10 9 8 8 8 8 8 7 6 5 4 3 3 3 4 5 6 9 11 12 14 15 16 17 18 19 20 21 23 25 26 26 25 24 26 28 27 25 24 24 24 25 26 24 23 23 23 24 25 23 18 17 14 12 14 15 12 9 9 11 11 10 12 15 16 17 17
15 15 14 14 14 13 13 13 12 12 12 11 10 10 11 10 10 9 9 8 7 7 7 7 7 7 7 6 6 5 4 4 4 4 6 8 9 11 13 14 16 17 18 21 22 22 23 26 29 31 30 28 27 27 27 26 26 25 25 26 27 25 23 20 20 23 25 22 19 17 14 14 14 12 9 8 9 10 10 9 11 13 14 15 17
13 13 13 13 12 12 12 11 10 9 9 9 7 7 7 9 8 8 8 7 7 6 7 6 6 6 6 6 6 6 6 5 5 5 6 8 9 11 12 13 15 16 17 20 23 23 24 25 27 29 29 29 28 27 27 29 28 27 27 27 25 25 24 21 19 20 18 16 15 13 11 13 14 11 9 9 9 10 10 10 12 13 14 14 15
12 11 10 11 11 10 11 10 9 8 8 8 6 5 5 6 6 7 7 7 6 5 5 5 5 5 5 6 6 6 6 6 6 6 7 8 9 11 12 12 13 14 16 18 21 22 22 22 24 25 26 29 31 29 29 30 29 28 29 27 24 24 23 21 18 16 15 16 15 12 11 13 13 10 9 9 8 9 9 10 12 13 13 13 12
11 10 9 9 10 10 9 9 9 9 10 10 9 8 7 7 7 7 7 7 6 5 5 6 7 7 7 7 7 7 7 7 7 7 8 9 9 11 12 12 13 14 16 18 20 22 21 20 21 23 26 28 29 27 27 27 26 28 29 26 24 23 21 20 18 17 17 17 15 14 14 14 11 10 9 7 7 7 7 8 10 10 9 10 10
9 9 8 8 8 8 8 8 8 9 11 11 10 10 10 9 8 8 8 7 6 7 8 9 9 10 10 10 10 10 10 10 9 9 8 9 10 11 12 13 14 15 16 17 19 21 21 20 21 23 25 26 25 25 25 24 23 25 28 27 25 23 22 21 20 19 18 17 15 15 15 12 10 9 7 6 6 6 7 7 7 6 5 7 9
7 9 8 7 7 7 6 6 7 8 11 11 11 11 10 9 9 9 8 7 8 10 12 13 14 14 13 12 11 11 12 14 15 15 14 13 12 12 12 13 14 15 16 17 18 19 20 21 22 24 27 27 25 25 26 25 23 25 30 29 24 23 25 22 19 19 19 18 16 15 14 12 10 8 6 6 6 7 9 8 7 8 8 9 11
7 8 8 8 7 6 6 7 7 9 11 12 12 12 11 10 10 10 9 10 12 15 18 19 20 19 18 16 15 15 16 19 21 21 21 19 17 14 13 14 14 15 16 18 19 20 21 21 21 22 25 27 26 25 26 26 23 25 31 30 25 24 24 22 20 18 18 18 16 15 14 11 9 7 6 6 6 8 9 9 9 10 13 14 14
7 8 8 9 8 6 7 9 10 11 12 13 14 13 12 12 11 10 11 14 17 18 20 21 21 22 22 22 23 23 23 25 25 25 24 24 22 20 18 16 16 17 17 19 20 20 20 21 20 22 23 24 24 25 26 26 24 26 32 34 30 25 21 21 20 18 16 17 16 14 13 11 8 7 6 5 5 6 8 9 9 11 13 14 15
7 6 8 11 9 7 9 10 10 11 12 13 14 13 12 13 12 12 15 17 18 18 19 20 21 23 25 26 27 27 27 27 27 27 28 27 25 23 20 18 18 18 19 20 20 19 20 21 22 24 25 23 22 24 24 24 24 27 32 34 30 24 21 20 18 17 18 17 15 12 11 10 8 6 4 3 3 4 6 7 8 9 11 12 13
7 6 8 11 9 8 10 10 9 11 12 12 12 11 12 13 13 14 17 18 18 19 19 20 22 23 24 25 25 25 25 24 23 24 25 27 27 26 23 21 19 19 19 20 20 19 20 21 21 21 23 24 25 25 21 20 23 28 33 32 25 21 22 21 17 17 20 17 13 10 10 8 6 4 3 2 3 4 5 7 8 8 9 9 8
7 7 9 11 10 9 10 9 10 11 11 10 10 10 12 13 13 14 16 16 17 17 18 20 20 21 23 24 25 25 24 22 22 22 22 24 25 25 24 23 22 21 21 21 21 21 20 20 19 17 17 22 27 28 23 20 24 30 33 29 22 18 20 20 18 19 20 17 12 10 8 6 5 3 2 2 3 5 6 6 7 7 7 6 4
7 7 9 10 9 8 8 8 9 9 9 9 9 10 10 12 12 13 14 14 15 16 17 18 18 19 20 21 22 22 22 21 21 22 22 23 24 24 24 24 23 23 22 22 22 23 22 21 20 18 16 17 22 25 23 21 23 27 29 27 23 20 20 21 20 20 19 14 11 10 7 5 5 3 2 3 4 5 5 6 6 6 4 3 4
6 7 8 9 8 7 7 8 8 8 8 8 9 9 10 12 13 14 15 16 17 18 18 19 19 19 19 19 19 20 21 21 22 22 22 23 23 24 25 26 26 26 25 24 24 25 24 22 21 22 20 16 17 21 21 22 26 29 29 28 28 25 24 24 23 19 17 13 11 9 7 6 5 3 3 4 5 4 5 5 4 4 4 5 7
6 7 7 7 7 7 7 7 8 8 9 9 10 11 12 13 15 16 17 18 18 19 19 20 20 20 20 20 20 20 21 22 22 21 22 23 23 23 24 25 26 26 26 26 25 26 27 24 22 22 20 17 19 23 26 29 32 33 32 31 30 28 27 27 25 20 17 14 11 10 9 7 5 4 4 4 4 3 3 3 2 3 5 7 7
6 7 7 7 7 6 6 7 8 9 10 10 11 12 13 15 16 17 17 19 19 19 20 20 19 19 19 19 20 20 20 21 21 21 21 22 23 24 24 24 24 24 27 28 25 22 22 21 20 21 20 20 22 27 31 33 32 32 33 33 32 31 29 27 25 21 17 15 13 11 10 8 6 5 4 3 4 5 4 3 3 4 3 3 4
7 7 7 6 6 5 6 6 8 9 10 10 12 13 14 15 16 17 17 19 19 19 19 18 17 17 17 17 18 19 19 20 21 21 22 22 23 25 26 27 26 25 26 28 26 22 19 17 17 20 24 25 25 27 31 34 33 32 33 33 32 32 31 28 25 21 17 15 14 13 11 9 7 6 6 8 8 6 4 3 5 4 3 4 5
8 7 7 5 5 5 5 7 8 9 10 11 13 14 15 15 16 17 18 18 19 18 17 16 15 15 15 15 16 17 17 18 20 20 21 23 24 24 25 28 29 29 28 27 27 26 23 19 17 17 23 29 29 26 28 34 35 34 35 34 34 33 30 26 22 20 18 16 14 13 12 10 8 8 9 11 9 6 5 5 4 4 3 4 4
Wind_Direction
184 188 175 163 156 149 144 147 153 154 150 156 172 181 182 177 178 179 175 173 171 167 163 158 149 140 142 145 140 143 146 146 147 150 158 160 166 196 210 214 221 214 217 227 223 213 213 217 217 196 186 211 202 183 197 198 194 202 200 199 191 188 201 195 187 179 177 185 177 170 175 169 164 166 170 157 130 124 131 155 177 187 216 248 260
181 188 175 159 143 136 141 152 158 156 163 177 182 181 180 175 175 180 171 169 170 167 166 149 137 140 135 130 128 128 128 131 137 138 139 132 124 130 175 197 213 197 211 224 215 216 215 210 206 171 164 183 194 185 185 190 192 201 204 199 192 191 204 205 190 184 191 195 185 171 182 193 176 162 183 166 146 133 107 149 200 207 241 260 270
179 185 168 144 145 156 165 170 174 174 179 185 180 173 175 167 166 175 154 152 157 155 149 130 122 130 124 120 116 111 119 128 131 122 108 103 115 122 112 108 150 177 223 230 196 211 216 214 205 186 183 185 198 197 187 191 199 206 205 193 194 199 204 213 198 191 198 191 182 175 179 188 174 170 183 158 144 139 114 102 88 64 306 291 284
176 165 145 142 163 173 172 174 177 178 182 182 173 172 172 163 174 185 138 146 150 139 137 129 133 145 141 138 129 120 127 128 122 112 103 93 99 117 118 116 131 138 164 247 192 213 220 227 222 202 195 173 183 202 200 205 210 213 208 197 200 202 201 215 211 203 206 175 169 183 185 180 176 175 168 141 132 129 117 119 109 90 55 17 11
157 139 152 173 179 176 170 175 178 178 178 176 179 183 180 180 186 164 151 165 155 137 141 146 147 150 136 126 116 109 112 115 113 109 107 103 94 99 110 115 127 131 137 156 197 216 213 216 226 207 187 160 167 183 193 207 208 209 213 210 209 206 200 211 220 211 210 204 193 189 182 186 196 178 155 141 134 121 121 115 104 95 74 67 58
138 144 180 184 181 180 172 167 169 172 170 169 182 188 187 196 188 159 162 163 151 139 141 146 143 134 119 108 106 110 116 120 123 118 113 116 113 104 105 111 119 134 148 157 172 190 200 208 215 213 186 169 168 161 165 185 185 193 207 215 214 210 203 202 228 223 212 221 221 201 196 201 191 177 160 151 143 126 124 103 86 86 77 76 75
158 185 194 181 176 178 167 158 164 171 172 169 176 181 184 193 181 164 167 160 153 147 143 145 139 126 117 113 117 122 127 127 130 129 121 125 130 126 137 131 112 117 148 145 155 196 227 230 220 217 219 208 174 167 186 191 188 198 199 207 216 219 217 206 208 219 212 224 223 202 201 190 180 179 167 156 150 136 130 114 99 100 91 82 76
170 195 196 183 172 165 155 161 171 175 181 179 179 184 185 190 184 164 161 161 162 158 151 150 141 131 127 122 121 127 139 138 133 132 129 131 129 119 122 122 117 134 151 140 134 144 181 181 164 161 160 190 175 172 187 184 190 203 196 202 212 214 224 214 196 193 195 213 219 204 195 181 182 185 176 170 160 141 137 124 107 105 93 83 79
173 186 187 178 162 153 154 165 169 169 178 184 188 192 191 195 197 182 170 166 164 157 153 153 142 133 131 124 124 132 141 139 130 132 135 136 134 127 128 133 138 146 143 134 120 103 124 145 150 144 132 131 143 154 166 163 172 188 185 191 199 194 209 215 199 186 186 201 205 196 191 182 183 186 181 179 163 141 141 131 114 103 89 81 79
166 170 171 164 155 157 163 164 157 149 157 172 188 195 192 194 201 197 186 176 172 159 152 159 147 134 137 134 130 137 140 138 137 141 139 137 139 140 142 146 151 151 146 133 117 114 136 132 126 127 130 139 138 133 146 153 160 172 175 184 190 186 200 211 194 180 184 190 183 177 183 182 180 183 174 162 156 144 138 136 130 113 100 92 84
158 161 159 155 152 157 161 163 165 162 161 172 188 195 190 186 194 199 193 184 186 172 157 163 157 149 158 149 132 141 148 147 148 148 142 142 145 144 146 148 151 152 152 142 133 152 162 137 114 97 104 123 120 117 129 142 152 167 179 188 197 195 197 200 182 168 163 162 157 159 162 156 162 167 157 158 166 155 137 136 135 123 113 107 99
156 160 156 151 149 151 155 166 175 176 180 185 190 192 187 186 193 196 191 186 188 184 168 166 165 165 169 161 146 150 155 154 154 153 151 154 153 151 151 151 152 150 148 145 140 143 141 124 112 101 104 111 105 108 123 132 139 150 160 166 182 186 175 169 163 151 136 133 137 133 121 120 125 118 139 165 164 151 148 143 135 128 120 113 108
154 160 157 149 147 146 152 163 169 174 183 188 190 190 186 188 191 186 181 181 187 192 189 180 176 174 171 168 164 158 155 153 152 153 154 158 159 156 152 148 149 149 143 140 137 131 125 121 119 119 129 127 112 107 110 112 119 128 138 141 142 147 141 133 135 138 132 120 112 110 104 111 114 111 138 151 138 144 154 148 134 129 126 124 123
152 156 153 148 147 147 153 158 163 172 178 179 185 187 183 181 182 180 179 185 193 204 214 203 192 190 184 177 170 158 152 151 152 158 157 157 157 153 151 148 149 151 145 138 134 135 140 144 145 143 141 134 125 119 111 100 97 106 116 119 116 115 119 120 118 121 123 115 108 110 115 119 113 115 128 126 133 145 154 149 134 130 138 142 140
148 152 151 150 149 148 153 155 160 169 168 168 177 181 179 179 181 183 189 195 201 212 230 228 210 205 204 195 180 162 153 149 151 158 156 155 155 153 151 149 148 148 148 147 144 147 152 151 155 156 148 133 119 113 107 104 103 105 106 107 111 114 115 119 123 123 126 130 127 113 107 106 99 103 114 124 145 152 154 150 137 141 151 140 129
145 151 148 148 145 145 150 155 159 163 160 163 171 174 177 180 183 189 198 204 206 212 227 236 227 214 211 209 201 183 169 159 156 164 164 157 152 152 152 150 149 149 150 148 142 137 135 135 146 156 155 146 131 119 114 116 116 117 115 111 112 115 116 119 129 137 142 142 127 106 100 105 104 107 109 116 129 135 143 142 139 152 148 132 126
137 146 144 142 141 142 144 147 152 155 156 158 160 166 171 171 176 188 195 200 204 210 221 231 231 220 212 215 213 204 196 183 178 183 178 165 156 156 159 157 157 160 159 150 141 135 132 131 139 150 154 155 145 133 131 127 120 121 126 127 129 130 131 132 135 140 141 133 118 101 97 103 105 112 118 117 114 120 138 142 146 165 155 147 157
121 131 134 135 138 140 141 145 149 155 162 162 159 163 168 167 174 186 191 195 204 213 220 225 226 220 218 224 222 212 206 197 194 192 181 172 170 172 173 171 170 172 168 159 151 146 142 142 144 148 152 152 144 137 133 127 125 133 140 145 149 146 143 141 140 141 135 125 115 103 101 114 118 119 121 121 115 116 134 143 141 174 254 146 161
115 121 129 133 138 142 144 143 143 150 163 167 167 169 173 175 180 187 193 200 208 214 221 228 229 226 226 227 223 216 211 201 194 185 172 170 178 182 182 179 177 177 172 164 156 150 147 148 150 152 156 156 150 143 136 131 137 145 146 149 150 144 142 142 140 141 138 131 123 110 105 116 116 112 110 111 109 109 120 117 108 123 33 59 118
117 120 129 138 147 155 156 153 149 152 164 171 175 177 182 187 190 192 196 202 208 214 222 229 232 233 230 225 221 220 217 202 186 171 160 162 173 180 181 177 175 177 173 161 152 152 150 146 149 152 155 156 154 147 141 139 138 135 135 143 143 137 137 138 134 133 131 127 119 111 115 116 108 103 105 104 106 108 110 102 97 101 77 77 99
114 113 119 133 143 150 159 168 170 167 169 174 178 184 190 194 196 200 204 207 213 220 224 227 231 233 231 226 222 220 214 200 187 176 172 178 179 178 178 175 173 174 168 157 151 155 153 146 145 148 151 155 155 148 141 137 135 134 135 136 131 126 130 136 136 133 129 124 117 120 135 131 116 116 123 116 119 119 111 104 98 99 99 90 95
112 114 119 124 124 128 141 155 160 162 168 175 181 188 195 200 199 201 206 211 218 225 225 226 227 231 234 228 221 222 217 206 200 195 203 211 196 180 177 175 172 166 158 157 159 157 154 154 150 149 150 151 149 144 137 136 144 149 147 138 127 127 138 142 139 136 140 143 135 134 151 153 146 143 144 145 152 152 155 153 141 115 114 109 74
110 111 117 120 117 120 127 134 145 160 171 177 180 183 187 193 196 197 201 204 205 209 213 213 212 219 225 215 210 214 212 210 213 215 220 221 202 180 175 178 178 167 158 163 168 164 161 163 159 157 156 152 152 150 143 144 153 154 153 147 139 141 147 145 141 140 152 161 152 151 174 185 181 166 157 164 176 186 212 176 163 177 156 132 70
108 108 111 114 114 118 121 125 135 148 160 167 170 173 175 180 183 187 192 192 187 190 195 198 201 205 203 195 195 202 203 208 219 224 224 218 208 194 183 182 184 179 172 171 174 174 172 171 168 167 164 162 166 164 153 150 155 152 154 158 155 154 152 147 148 151 159 172 166 164 181 194 193 179 173 189 191 195 213 165 172 194 186 177 147
102 102 103 104 107 116 121 123 127 131 139 148 152 159 166 170 174 176 178 181 182 182 182 184 189 193 192 189 190 197 204 209 214 217 219 217 213 208 201 194 188 186 185 182 180 181 183 184 182 180 179 178 179 177 168 167 170 165 163 167 165 163 162 158 162 167 170 177 178 179 189 197 196 188 185 197 197 197 205 195 194 204 202 202 203
95 93 93 92 94 102 110 119 127 130 133 136 138 145 150 152 158 159 158 163 168 171 176 181 186 189 189 192 197 199 200 205 209 210 214 218 217 211 206 203 196 193 194 191 188 187 190 195 195 192 193 191 189 187 183 182 184 179 175 173 170 172 174 172 177 182 184 190 193 195 200 205 208 204 199 200 205 206 206 209 216 219 220 215 213
92 90 88 87 87 89 95 104 112 119 125 126 126 129 132 133 138 141 145 151 156 160 168 172 179 190 195 201 208 205 196 198 207 210 213 218 217 208 203 203 202 201 201 199 197 196 195 197 200 198 197 195 193 192 190 188 186 184 180 177 177 178 179 182 187 190 198 208 212 214 215 218 220 221 220 216 219 224 220 221 226 226 229 232 223
94 91 87 85 85 85 87 91 93 98 108 113 115 119 120 121 125 131 137 146 151 154 158 161 167 180 191 195 203 207 200 200 208 211 211 212 211 208 208 210 210 209 209 207 206 205 203 200 201 201 199 197 193 190 192 191 187 185 183 183 186 185 185 196 199 197 207 214 217 223 227 232 234 234 235 229 227 235 237 235 239 239 238 241 240
93 90 87 84 83 81 81 82 84 88 94 99 103 108 111 111 116 122 120 125 139 145 147 151 156 169 184 190 202 210 205 205 214 216 212 211 211 212 215 217 218 218 218 217 214 213 211 208 207 204 201 199 195 193 197 199 194 190 185 182 183 182 183 196 201 208 220 221 222 226 228 234 240 239 238 236 232 234 238 237 238 243 241 240 242
92 88 86 82 80 79 77 76 78 80 83 86 88 91 94 96 102 108 106 101 109 119 120 119 130 169 192 191 204 214 211 210 216 218 219 223 224 222 222 223 224 226 226 225 224 220 217 214 213 209 205 202 200 203 210 211 204 200 198 196 194 189 187 193 201 213 225 229 233 240 239 236 239 243 243 245 245 243 245 245 239 239 239 236 237
92 88 85 81 77 75 74 72 70 70 72 74 75 77 79 81 84 91 99 101 98 96 96 96 102 117 161 188 202 212 215 217 221 223 225 231 236 236 235 233 231 229 228 228 227 224 221 219 217 212 210 212 216 224 231 230 223 220 223 223 216 208 203 205 217 226 232 234 237 251 259 248 246 255 253 248 249 251 252 253 250 247 245 243 245
90 87 83 78 73 69 68 67 65 64 64 63 65 67 67 67 69 73 80 86 85 84 83 83 80 73 66 76 208 206 216 221 228 235 238 240 243 244 242 241 238 236 235 232 229 227 224 225 224 219 217 225 233 239 241 238 233 231 234 236 233 232 232 232 235 239 241 240 237 241 258 256 251 259 260 254 253 253 251 253 256 255 253 252 255
85 82 78 73 70 64 61 60 58 58 57 56 59 59 56 57 60 62 68 75 75 73 70 68 62 51 45 31 2 312 260 237 231 239 243 244 246 247 245 244 243 242 239 235 235 236 235 233 232 227 223 228 237 241 240 238 237 234 233 233 237 244 247 242 240 244 245 244 241 237 241 249 249 251 258 260 256 253 253 253 254 256 258 260 262
79 76 72 68 65 62 61 59 54 51 51 54 61 59 51 50 53 55 57 63 68 69 65 59 52 42 37 29 14 344 303 276 252 248 246 243 247 250 250 247 245 243 240 236 237 238 237 236 235 233 227 226 234 241 239 233 233 236 235 235 237 241 245 245 245 248 248 245 243 242 239 239 243 246 250 246 240 249 261 263 259 259 259 261 262
76 71 67 63 60 60 65 62 52 47 46 50 64 67 52 44 45 45 44 47 54 57 54 49 43 35 29 23 14 357 333 307 283 267 259 258 259 258 255 252 248 245 244 244 243 240 240 242 242 242 238 232 233 238 236 232 235 238 237 238 238 239 241 240 236 241 244 242 240 239 232 227 234 241 243 237 236 250 263 267 265 265 263 263 265
73 69 67 65 62 59 60 55 46 43 40 40 55 67 52 40 36 30 26 28 33 37 38 35 28 19 12 11 4 351 340 327 308 290 277 272 270 268 266 260 254 250 247 247 246 245 246 246 244 244 242 236 232 233 235 239 240 234 233 237 236 232 232 230 226 229 232 227 225 221 215 225 234 233 232 235 239 250 260 264 266 267 267 269 271
71 63 57 56 56 52 47 40 33 28 21 13 14 29 34 27 22 19 16 14 12 14 17 12 0 353 349 349 344 336 329 322 314 306 295 283 275 274 273 265 257 254 251 249 249 248 247 245 242 241 238 237 237 237 239 242 238 234 237 238 227 217 218 218 215 209 205 208 212 205 206 222 229 225 225 230 234 244 253 258 262 264 267 268 266
73 64 52 44 43 40 33 23 14 6 359 354 351 353 355 356 357 357 355 353 350 345 343 337 329 326 325 322 318 315 311 308 307 306 300 291 284 279 275 268 259 253 252 253 253 252 251 249 246 242 241 242 245 244 241 239 237 235 232 219 204 200 201 201 196 190 197 209 211 208 215 223 222 220 223 226 230 231 229 240 253 259 261 263 260
62 55 53 47 36 33 30 19 6 355 348 348 349 347 348 350 346 337 335 335 325 312 311 312 310 308 306 306 305 301 298 294 291 292 293 292 290 286 279 271 263 256 254 254 254 255 254 251 248 247 248 249 249 247 243 237 231 224 210 195 190 192 192 191 188 188 200 210 205 205 215 219 216 216 214 215 224 212 197 211 233 235 234 249 255
39 30 41 44 30 27 29 17 3 354 347 345 345 344 343 341 333 328 328 321 305 299 299 297 294 292 293 298 299 296 292 288 284 283 285 284 285 288 285 277 268 262 258 256 255 257 256 253 251 253 254 253 251 247 242 235 227 214 200 191 189 191 192 189 184 188 201 205 202 204 210 209 208 210 203 203 208 197 191 199 211 216 221 230 240
34 24 28 30 25 20 16 4 351 346 345 342 339 338 336 330 326 324 316 304 299 297 296 294 293 291 289 286 283 282 282 281 279 280 282 280 278 278 280 280 274 266 262 259 258 256 256 256 256 256 257 257 254 248 240 235 228 215 204 197 191 189 193 188 179 181 193 198 198 201 202 201 200 199 197 199 200 201 209 219 224 225 226 231 242
29 24 8 6 15 8 353 352 346 341 341 336 332 332 328 321 318 311 299 294 294 293 293 294 293 291 288 284 281 280 280 279 278 278 277 276 275 273 272 273 272 269 265 262 260 257 256 256 254 253 255 255 253 251 246 239 231 215 203 198 193 189 189 186 178 172 175 189 196 195 192 194 193 193 197 199 202 211 223 234 239 237 237 243 251
22 17 349 352 6 355 343 348 345 337 336 332 330 331 323 318 317 309 302 301 300 298 295 291 288 286 285 285 284 282 282 281 279 277 275 273 272 271 269 268 268 267 264 262 262 257 253 250 248 251 253 249 246 250 249 242 232 217 202 195 192 187 183 185 184 171 168 183 195 187 184 189 189 192 200 203 220 232 235 242 248 251 254 257 261
11 3 343 348 356 345 341 347 341 333 334 332 332 330 325 327 328 321 317 317 315 310 305 298 294 290 286 283 281 280 280 279 278 276 274 272 270 268 267 265 264 264 261 259 258 254 250 249 248 252 253 247 243 246 247 240 231 217 203 195 190 181 178 183 183 172 175 191 197 183 182 191 190 195 210 221 245 253 256 265 266 264 267 268 270
3 352 340 344 348 341 340 341 335 334 335 334 335 335 333 336 335 329 327 326 321 317 312 307 303 299 293 288 284 280 277 276 276 273 271 270 268 267 264 261 260 260 259 256 254 250 246 246 245 245 246 246 248 251 251 242 224 207 195 190 186 179 178 181 180 179 188 199 196 183 186 194 193 205 230 249 269 273 274 275 271 269 275 275 267
354 345 340 343 344 339 337 336 336 339 340 338 339 338 335 335 332 328 327 323 317 315 311 307 306 304 300 298 294 288 283 278 274 271 270 268 265 261 259 257 256 256 256 254 252 248 245 243 241 238 235 239 249 253 248 233 211 196 188 187 188 189 189 187 187 193 200 201 190 186 194 197 200 222 258 263 270 274 271 268 268 271 269 247 253
346 341 341 344 342 336 336 337 339 342 341 338 337 333 329 327 324 322 319 315 312 309 306 304 303 301 300 298 296 294 290 283 275 271 269 267 263 260 258 255 252 251 252 252 251 249 248 243 236 236 237 235 238 239 227 203 187 182 183 186 190 196 199 197 196 201 205 201 194 195 197 198 207 226 243 248 255 260 261 266 272 267 256 255 267
340 338 339 341 337 335 338 338 337 335 331 329 327 325 322 320 316 315 313 310 308 304 300 299 297 295 295 294 292 292 292 288 283 276 271 267 264 261 258 254 252 249 248 250 252 253 254 248 235 231 229 218 215 218 207 191 184 183 184 187 193 199 203 203 203 206 204 200 197 197 194 194 203 217 228 242 247 237 236 236 213 226 264 291 303
338 335 337 338 334 333 335 331 329 328 325 324 322 319 318 316 314 313 311 308 306 302 299 296 294 291 290 289 289 290 289 288 287 283 278 271 264 260 258 256 255 253 248 246 247 248 250 246 236 230 222 208 205 208 201 193 191 190 188 189 194 199 203 204 205 207 204 198 196 196 194 193 195 198 197 187 179 183 201 237 244 236 240 272 301
334 331 332 329 325 326 327 325 327 326 322 321 320 317 316 315 312 311 309 306 304 302 298 294 291 289 289 287 287 288 286 285 285 284 283 279 270 262 257 251 250 251 247 241 239 243 247 246 240 235 225 212 205 204 202 199 197 194 194 197 199 200 202 203 203 202 200 198 197 193 189 189 185 173 166 168 175 181 194 245 275 280 238 236 267
330 330 326 320 315 318 321 322 325 324 321 319 318 315 315 314 312 311 308 305 303 300 296 293 290 287 287 287 286 285 284 284 285 284 285 285 279 272 265 256 250 248 246 241 239 241 246 250 249 238 221 210 205 204 207 207 203 198 199 203 204 202 203 203 199 195 195 196 195 188 182 177 169 163 168 175 180 182 180 196 243 280 269 268 294